Temperature
19 19 19 20 23 24 25 25 25 26 26 24 23 24 25 24 24 21 18 18 16 15 14 14 14 14 14 13 13 12 11 11 11 11 11 12 12 11 11 11 10 10 10 10 10 10 11 10 10
19 18 19 21 24 24 25 26 25 25 24 22 22 22 24 23 19 18 17 18 16 15 14 14 14 14 13 13 13 11 11 11 11 12 12 12 11 11 10 10 10 10 10 10 10 12 12 10 11
19 18 20 23 24 25 26 26 26 23 22 22 23 22 23 22 18 17 17 18 16 14 14 14 14 14 13 13 12 12 11 11 11 11 11 11 11 11 10 10 10 10 10 10 12 14 13 13 13
18 18 20 23 24 25 26 26 24 23 22 22 23 23 21 19 19 18 18 17 15 14 14 14 14 13 13 13 12 11 11 11 11 11 11 11 11 10 10 10 10 10 10 12 14 14 14 14 13
18 20 22 23 24 25 25 25 24 25 25 24 23 24 22 19 20 19 18 17 15 14 14 13 13 13 13 13 12 11 11 11 11 11 11 11 11 11 10 10 10 11 11 12 13 13 13 13 13
19 20 23 23 24 25 25 24 23 24 25 23 23 24 22 20 19 19 18 17 15 14 14 13 13 13 14 13 13 12 11 11 11 11 11 11 10 10 10 11 10 11 11 12 12 13 13 13 13
20 21 23 24 24 24 25 23 24 25 25 24 23 24 21 19 19 19 17 15 15 14 14 14 14 15 15 15 16 14 12 11 11 11 11 10 11 10 10 10 11 11 11 12 12 13 13 13 13
19 21 22 23 24 24 24 22 22 24 25 22 22 25 23 19 20 19 18 16 15 15 15 15 15 15 14 16 18 16 14 12 11 11 12 12 11 10 10 10 10 10 11 12 12 13 13 13 13
17 21 22 23 23 24 22 23 22 21 22 21 21 21 21 20 20 19 18 17 16 16 16 16 16 16 15 15 16 16 15 14 12 12 13 12 10 10 10 10 10 11 11 12 13 13 13 13 13
19 20 22 22 23 23 22 22 22 22 23 23 21 20 21 21 20 20 20 19 19 18 18 18 18 17 16 17 16 16 14 14 12 11 12 11 10 10 10 11 11 11 12 12 13 13 13 13 12
19 21 21 21 21 21 21 21 21 23 24 25 24 21 21 21 20 20 20 20 19 18 18 19 18 17 17 17 16 16 15 14 13 12 12 12 12 11 11 10 11 11 12 12 12 12 13 13 13
18 21 20 21 19 19 21 21 22 22 24 22 22 22 21 21 21 22 21 21 19 19 19 19 19 18 18 18 17 17 16 16 15 15 14 13 12 12 11 10 11 11 11 11 12 12 12 13 13
20 21 20 20 19 19 20 21 22 22 22 22 22 22 21 21 22 22 21 20 19 19 19 19 19 19 19 18 18 17 17 17 16 15 14 14 13 12 12 11 11 12 11 11 11 11 11 11 12
20 20 20 20 20 19 21 21 20 23 21 21 21 21 21 21 21 20 20 21 20 20 20 19 19 19 19 19 18 18 17 17 16 15 15 14 14 13 12 12 12 12 12 11 11 10 10 11 11
18 20 21 20 20 19 20 22 22 23 21 22 22 21 20 21 20 21 22 22 21 21 20 19 19 19 20 20 19 18 18 17 17 16 15 15 14 13 13 13 12 12 12 11 11 11 11 11 11
19 21 21 21 20 20 20 23 24 22 21 22 22 22 21 21 21 22 21 21 21 21 21 20 20 20 20 20 20 19 18 18 17 17 16 15 14 14 13 13 12 12 11 11 10 10 10 10 10
20 21 21 21 20 20 21 22 24 22 21 22 23 23 22 21 21 21 22 22 22 22 22 21 21 20 20 20 20 20 19 18 18 17 16 16 15 14 13 13 13 12 11 11 10 10 9 9 9
20 20 20 21 20 20 21 22 23 23 21 21 22 22 22 21 21 21 21 22 22 22 21 20 20 21 21 21 20 19 19 19 19 18 18 16 15 15 14 13 13 12 11 10 10 10 9 9 9
20 20 20 20 19 19 21 21 22 21 21 21 21 21 21 20 20 20 20 20 21 22 21 21 21 21 21 21 20 20 20 20 20 19 18 17 17 16 15 14 13 13 12 11 10 10 10 9 9
19 20 20 20 19 19 21 21 21 21 20 20 20 20 20 19 19 19 19 20 19 20 21 22 21 21 21 21 20 19 19 19 20 20 19 19 18 17 16 15 14 13 12 11 10 10 10 9 9
19 20 19 19 20 19 20 21 21 21 21 20 20 19 19 18 18 18 19 20 21 20 19 20 21 21 21 21 19 19 19 20 20 20 21 20 19 18 17 16 15 14 12 12 11 10 10 10 9
19 18 18 18 20 20 19 22 21 21 21 21 20 20 18 18 17 17 18 19 19 19 19 19 20 20 20 19 19 20 20 20 21 20 20 20 19 19 18 17 15 14 13 12 11 11 11 10 10
18 17 17 18 19 19 19 21 22 21 21 20 20 19 18 17 17 17 17 18 19 20 20 20 21 21 21 21 21 20 20 20 20 20 20 20 19 19 18 17 16 15 14 13 12 11 11 11 11
16 17 17 18 19 19 18 19 21 21 21 20 20 19 18 17 17 16 17 19 19 20 20 20 21 21 21 21 21 21 21 21 21 21 20 19 19 19 18 17 16 15 15 14 13 12 11 12 11
18 19 20 20 19 18 16 18 21 21 20 20 19 18 18 17 16 16 18 18 19 19 19 19 19 19 19 19 19 18 18 18 19 19 18 18 19 19 19 18 17 16 16 15 14 12 12 12 12
18 19 19 19 19 20 16 19 21 21 20 18 17 17 17 16 16 16 17 17 17 17 18 18 18 18 19 19 18 18 18 17 16 15 15 16 16 16 17 17 16 16 15 15 14 13 12 12 12
15 17 17 18 16 18 18 19 21 20 19 19 18 18 16 16 15 15 16 16 15 16 17 17 17 17 18 18 18 18 18 18 18 17 17 18 18 18 18 17 17 17 16 15 14 14 13 12 12
14 16 13 17 17 17 18 18 20 20 20 20 19 18 16 15 14 14 14 15 14 15 15 15 16 16 16 17 17 17 17 17 18 18 18 18 18 18 18 17 16 16 16 15 13 13 13 12 12
16 17 16 17 17 17 17 19 21 21 20 19 18 16 15 14 13 12 12 12 12 13 13 13 13 14 14 14 14 15 15 15 16 17 17 17 18 18 18 17 17 16 16 16 15 14 13 13 13
16 17 17 18 16 16 16 18 20 20 18 17 17 16 14 14 13 11 11 11 11 11 11 11 12 12 13 13 13 13 13 13 14 14 15 15 16 16 16 16 16 16 16 16 15 15 13 12 12
Wind_Speed
5 6 4 3 5 6 8 4 3 4 3 2 2 1 2 3 4 2 4 5 6 11 14 14 12 13 13 11 10 11 8 4 4 5 6 7 8 8 7 6 7 7 6 7 6 6 5 7 7
4 4 3 3 7 11 9 6 6 4 1 3 3 2 2 1 2 3 6 5 9 11 12 11 10 13 12 10 10 9 8 5 5 6 6 7 8 8 6 6 7 6 5 6 5 5 4 6 6
2 4 4 4 9 12 7 5 4 3 3 2 2 2 1 1 2 4 5 9 11 11 10 7 9 13 12 10 10 8 6 5 5 5 6 6 7 8 6 5 5 5 5 5 4 4 3 5 5
2 4 4 7 12 11 5 1 4 6 5 4 3 2 2 2 2 4 7 10 12 10 9 9 11 11 9 10 9 8 8 7 6 5 5 5 6 7 6 5 4 4 5 4 3 3 3 3 3
2 4 9 11 14 9 7 3 2 7 5 5 5 2 3 5 5 6 9 11 11 9 8 10 10 9 8 9 10 9 7 7 7 6 4 4 5 5 6 4 4 5 5 4 3 3 3 3 3
4 5 11 14 15 9 5 6 5 9 7 5 5 3 4 6 7 8 10 10 10 9 8 9 9 9 8 8 9 9 8 8 7 6 4 3 4 5 5 3 3 5 4 2 2 3 3 3 2
6 7 11 13 12 9 6 6 6 9 9 5 3 2 4 8 8 10 11 10 9 9 9 8 9 9 8 9 9 8 8 8 8 7 5 4 4 5 5 5 4 5 3 2 1 2 4 4 3
4 6 9 10 11 8 4 4 3 8 6 2 2 2 3 9 12 12 10 9 9 9 9 9 8 8 9 10 10 9 7 8 9 7 6 5 5 4 4 4 6 5 3 2 1 2 2 2 1
3 8 12 8 8 5 2 4 3 2 4 4 3 1 5 12 15 13 11 9 9 10 10 9 9 9 8 8 10 9 8 10 10 8 8 7 5 4 5 5 6 4 3 2 2 1 1 2 3
5 11 10 4 2 2 1 4 3 5 8 7 7 6 9 14 16 16 15 14 14 14 13 12 11 10 9 8 9 11 12 12 12 11 10 9 6 5 3 4 5 4 3 2 1 1 2 5 5
7 11 6 2 1 3 3 4 4 7 9 10 10 13 14 16 17 17 16 16 17 16 15 14 14 13 11 9 10 10 11 11 11 12 11 9 8 7 7 6 6 6 6 5 5 5 5 5 5
8 11 6 1 0 2 3 2 5 11 9 2 4 8 17 19 20 19 18 17 16 16 17 16 16 15 14 13 12 11 11 11 11 13 13 11 8 8 8 7 7 6 6 6 6 6 6 6 6
10 7 5 3 3 3 3 4 4 9 11 6 1 8 15 18 19 18 16 15 16 17 17 17 17 18 16 15 13 13 13 14 14 13 14 13 10 9 9 8 9 8 8 7 7 7 7 7 7
6 5 3 2 2 2 4 2 3 5 5 9 9 11 14 17 18 17 17 18 19 19 19 18 18 19 18 16 15 13 14 14 14 14 15 16 14 11 10 9 10 10 10 10 9 9 7 7 7
2 5 5 2 1 2 4 7 7 4 3 7 10 11 12 15 16 20 21 20 20 20 19 20 19 19 19 19 18 14 14 14 14 16 18 19 18 15 12 11 11 11 12 12 11 10 9 8 8
4 7 9 4 1 1 4 10 6 3 5 9 10 11 13 15 17 19 20 20 20 19 20 20 17 18 19 18 16 14 15 15 15 17 18 21 21 19 14 12 12 13 13 11 10 10 10 10 10
8 8 11 6 2 2 4 11 8 7 8 11 14 15 15 15 17 18 20 21 21 22 21 20 19 19 19 17 15 15 15 15 16 17 18 20 22 22 18 13 13 14 12 11 11 10 10 10 11
8 8 6 5 2 4 9 14 14 13 11 13 16 16 16 17 18 18 19 21 21 21 21 20 18 19 18 15 13 13 15 16 16 16 18 20 20 22 19 15 15 14 13 13 12 13 12 11 11
4 3 3 1 2 4 8 13 13 10 3 4 6 8 10 13 14 14 16 18 19 20 20 21 20 20 16 14 14 13 16 15 15 15 19 20 21 21 19 16 17 16 15 15 15 14 15 13 11
2 2 1 1 2 3 8 9 5 9 9 8 9 10 11 13 12 10 10 12 16 19 20 19 19 19 18 16 15 12 10 11 15 15 18 21 22 21 17 19 16 16 15 17 17 16 13 13 12
1 1 1 1 3 2 5 4 7 10 11 12 12 11 13 15 16 16 15 12 10 12 15 15 16 16 17 17 14 12 11 11 12 15 16 18 19 20 19 20 18 17 16 15 17 17 18 15 13
2 1 2 2 4 2 3 4 7 9 14 16 18 18 18 19 19 19 17 15 11 8 7 9 10 11 12 14 15 18 15 15 16 13 13 14 17 19 20 20 19 18 16 17 17 17 16 16 13
2 2 1 1 3 2 2 1 4 3 10 13 16 18 16 17 20 21 19 17 15 10 6 5 6 9 11 13 16 16 17 16 14 13 13 14 15 17 19 19 19 18 17 18 19 17 17 16 15
4 3 2 1 2 2 2 2 2 2 4 7 12 18 16 16 18 19 19 17 17 14 11 7 5 5 6 10 14 18 20 18 16 15 14 13 12 14 18 19 19 19 18 19 19 18 18 16 14
4 4 2 2 2 1 1 4 3 4 2 0 6 12 15 16 17 18 19 19 17 17 16 13 11 9 6 5 9 13 16 16 17 16 14 13 12 13 15 18 18 18 18 19 18 17 17 16 15
1 2 2 1 1 0 2 4 3 7 4 3 3 6 12 14 15 15 15 15 16 16 16 16 15 13 11 8 7 8 10 11 12 13 13 13 12 11 12 15 17 18 18 18 18 15 16 15 16
2 2 1 0 1 3 3 6 7 11 8 5 1 8 13 13 13 13 14 14 14 15 15 15 15 15 14 12 9 8 8 9 11 13 13 12 13 12 13 15 17 19 20 20 18 16 18 17 16
1 4 2 2 2 3 3 6 6 9 11 7 2 8 9 9 10 11 11 11 12 12 13 15 16 15 15 14 12 9 8 8 10 11 13 13 14 15 16 16 18 19 19 19 18 16 18 17 15
4 3 0 1 2 3 3 6 2 4 3 2 6 9 10 11 9 8 7 8 9 10 10 12 13 13 13 13 13 13 12 11 9 9 11 12 14 15 17 18 19 20 20 20 19 20 20 20 18
0 2 5 3 2 3 3 8 3 3 2 4 7 9 8 6 5 6 6 6 7 8 10 12 13 13 12 11 10 11 11 12 11 11 12 12 13 14 16 17 18 20 21 20 21 21 21 21 20
Wind_Direction
318 306 279 237 229 228 229 214 237 219 200 157 113 175 304 317 332 360 123 145 153 152 154 156 159 146 137 133 135 130 124 152 132 130 121 107 106 89 73 70 73 78 76 82 82 84 104 105 107
321 290 246 229 233 225 216 202 219 214 130 130 138 206 244 78 59 107 136 148 154 148 155 157 153 148 142 141 140 132 140 170 142 138 132 116 112 109 88 76 77 90 104 102 101 102 118 114 112
268 272 243 220 223 226 223 208 201 162 157 180 172 236 318 76 106 130 120 139 148 146 151 133 137 149 148 147 140 149 167 172 150 128 115 108 109 110 102 87 93 110 113 117 120 117 131 124 115
233 234 234 226 215 219 230 112 161 165 195 220 227 186 144 77 91 123 135 147 150 147 147 124 132 138 147 150 152 169 185 179 160 127 109 102 105 110 114 111 120 115 121 121 133 138 153 120 112
205 244 226 219 217 211 221 234 214 196 203 193 204 170 138 134 120 139 150 152 150 150 146 136 132 138 159 170 166 183 188 177 162 151 139 123 109 111 119 134 143 138 134 140 153 174 181 150 133
206 244 230 214 215 213 222 221 205 217 211 184 199 186 123 134 145 150 155 158 157 161 160 152 151 155 171 188 167 188 190 186 170 169 175 141 121 115 100 105 110 127 126 136 151 189 200 188 162
236 241 245 222 218 215 209 181 208 207 213 197 191 189 130 160 146 150 157 161 168 173 173 176 178 175 182 185 164 198 190 186 170 187 185 153 136 122 88 67 103 109 106 116 156 198 198 199 191
251 248 237 219 215 217 186 195 223 212 215 167 209 224 126 147 144 151 158 170 182 185 189 189 192 199 201 193 178 196 180 177 166 181 154 133 130 136 126 107 90 92 95 113 152 170 168 185 234
237 238 231 216 212 215 172 211 183 231 221 195 196 90 101 139 147 155 166 184 197 201 202 201 204 211 212 200 182 195 187 169 174 179 159 168 192 179 165 106 94 100 113 126 145 156 185 211 226
224 233 233 231 236 292 284 235 209 213 214 212 200 165 144 157 169 173 182 193 202 208 208 206 210 214 208 203 199 205 200 199 202 202 194 205 204 194 190 144 136 131 140 149 146 135 210 219 213
223 234 233 241 314 305 278 235 217 229 226 228 220 189 169 178 188 191 196 203 206 209 208 212 212 211 207 204 208 209 209 210 210 208 207 208 207 202 206 202 195 198 192 200 193 199 214 220 222
227 231 250 271 356 266 246 228 221 228 240 305 261 192 181 191 198 200 203 207 209 210 212 209 217 212 208 206 208 211 212 212 212 211 210 210 211 212 213 213 208 216 217 217 219 226 220 223 227
230 223 232 261 282 269 251 227 239 244 241 239 236 196 204 209 210 210 213 216 217 218 219 214 210 216 209 209 210 212 213 214 215 214 214 214 216 215 212 211 207 210 216 222 227 236 239 238 235
220 235 255 263 269 311 285 254 239 242 222 221 218 219 220 224 221 216 216 219 221 222 223 218 212 215 212 212 214 215 216 217 219 220 218 218 220 220 215 215 216 219 221 224 230 237 243 247 244
233 228 214 177 298 335 297 247 226 223 207 226 227 232 233 237 231 226 222 222 224 226 226 222 217 214 213 214 217 218 218 217 219 220 221 219 221 222 220 222 222 224 226 227 231 238 243 247 247
199 213 216 163 353 350 287 257 229 220 241 247 245 248 245 243 237 237 236 233 232 232 230 227 221 219 217 218 219 219 221 220 221 221 222 221 220 222 223 226 230 230 229 230 235 240 242 244 247
205 206 216 200 87 334 273 272 266 256 257 269 273 272 267 259 251 245 243 239 237 233 232 228 221 221 219 218 222 223 224 226 226 225 225 223 221 220 222 226 229 233 234 234 237 240 244 248 249
192 202 205 222 59 307 276 277 287 291 284 283 285 283 279 272 263 256 249 245 243 241 238 235 227 225 220 215 219 225 228 229 228 228 228 226 224 223 223 229 229 227 231 233 233 238 239 242 251
138 162 194 186 47 303 285 298 324 338 327 316 317 306 298 293 290 278 266 257 249 242 237 233 228 224 217 212 211 217 227 231 230 231 232 230 227 224 222 226 229 227 229 232 232 233 238 237 239
160 169 146 186 200 279 300 318 31 35 40 25 9 3 351 339 333 326 316 289 264 249 238 234 231 227 218 216 214 217 231 234 232 231 230 228 228 226 222 223 226 226 227 232 233 234 238 241 234
183 270 118 268 285 255 303 99 71 46 59 61 51 33 23 13 5 357 347 334 296 268 258 246 240 236 227 221 219 223 233 235 235 231 230 229 230 229 227 227 227 226 226 230 229 229 229 232 229
160 197 227 285 317 14 3 124 84 55 68 58 49 40 35 33 30 21 12 9 359 327 288 264 256 251 243 231 226 225 226 234 238 239 238 231 228 227 227 227 228 227 225 228 229 227 227 227 229
134 161 232 302 302 292 24 283 112 91 73 58 45 38 39 39 33 24 21 21 21 15 353 307 273 253 241 230 228 232 239 247 252 247 241 235 228 226 226 225 225 226 226 228 228 226 224 223 220
161 176 152 168 231 220 9 306 159 141 94 66 43 35 34 35 28 25 24 26 26 23 21 15 352 314 279 248 236 232 237 243 245 243 240 238 230 224 223 222 222 224 225 228 229 228 225 221 217
209 238 228 194 190 116 341 281 235 182 176 336 20 20 22 31 26 22 22 21 21 21 19 17 13 7 350 299 267 257 255 255 254 252 248 242 234 227 223 220 222 224 225 228 229 228 224 218 213
132 300 292 295 304 142 220 266 248 194 186 261 319 3 26 32 26 26 27 24 24 22 22 21 20 16 5 345 314 285 271 269 272 274 273 268 262 254 244 234 234 235 233 231 230 228 227 222 219
161 164 27 83 56 276 263 285 271 193 214 239 226 23 34 29 23 27 29 32 30 28 29 29 30 27 20 8 349 323 299 281 275 273 269 266 265 264 258 245 237 235 234 233 230 226 227 224 225
21 113 167 201 221 240 259 265 235 187 195 199 323 18 30 34 34 31 29 30 31 34 35 36 32 29 21 14 9 353 330 303 288 282 277 273 270 267 262 255 250 245 241 239 238 238 235 230 226
150 174 140 5 335 289 273 266 254 229 188 0 7 11 12 29 43 44 40 37 43 42 35 28 22 19 16 14 9 4 355 343 326 304 294 286 280 275 269 264 258 253 246 240 233 235 237 234 230
26 193 191 217 187 239 278 276 272 233 106 25 359 355 13 48 60 54 47 39 34 25 14 6 3 4 5 5 3 4 1 355 351 341 328 315 301 291 282 275 268 262 256 248 240 236 236 237 233
Height
1533 1533 1533 1535 1533 1528 1523 1521 1520 1518 1519 1521 1521 1521 1521 1522 1523 1529 1527 1524 1524 1526 1528 1529 1531 1531 1532 1531 1531 1531 1531 1532 1534 1534 1534 1533 1531 1531 1531 1530 1529 1528 1528 1528 1527 1525 1525 1525 1524
1533 1534 1535 1534 1526 1527 1520 1516 1518 1518 1521 1522 1522 1523 1522 1522 1524 1525 1524 1523 1524 1526 1528 1530 1530 1531 1532 1531 1530 1531 1532 1533 1534 1534 1533 1533 1532 1532 1532 1530 1529 1528 1528 1527 1526 1525 1525 1525 1524
1533 1534 1536 1528 1523 1521 1516 1513 1515 1520 1523 1522 1522 1524 1524 1524 1523 1524 1523 1523 1524 1526 1528 1530 1530 1531 1531 1531 1531 1531 1532 1533 1533 1534 1533 1534 1533 1532 1531 1529 1528 1528 1527 1526 1526 1525 1525 1525 1525
1534 1537 1534 1525 1520 1515 1513 1514 1518 1521 1523 1523 1523 1523 1524 1523 1523 1523 1522 1523 1525 1527 1528 1528 1530 1530 1531 1530 1530 1530 1532 1533 1533 1533 1533 1534 1533 1532 1531 1529 1529 1528 1528 1527 1526 1526 1526 1525 1526
1534 1535 1527 1519 1514 1513 1514 1517 1519 1519 1520 1521 1522 1521 1522 1522 1521 1522 1522 1523 1525 1527 1528 1528 1529 1530 1530 1530 1529 1530 1532 1532 1532 1532 1533 1533 1533 1532 1530 1529 1529 1529 1528 1528 1527 1527 1526 1526 1526
1535 1533 1523 1517 1512 1512 1514 1517 1519 1518 1519 1521 1521 1520 1522 1522 1522 1522 1522 1524 1526 1527 1527 1528 1528 1529 1529 1528 1529 1530 1531 1531 1531 1531 1531 1531 1531 1531 1530 1529 1530 1529 1528 1528 1528 1528 1527 1527 1527
1533 1528 1518 1512 1512 1512 1513 1516 1517 1516 1519 1520 1520 1518 1521 1522 1521 1521 1523 1524 1526 1526 1526 1527 1528 1527 1527 1527 1528 1529 1530 1530 1530 1530 1530 1530 1530 1530 1530 1530 1530 1529 1528 1528 1527 1527 1528 1528 1528
1531 1529 1521 1515 1512 1511 1514 1516 1516 1517 1518 1520 1520 1518 1520 1522 1520 1521 1522 1524 1525 1525 1526 1527 1527 1527 1527 1527 1527 1528 1528 1529 1529 1530 1529 1528 1528 1528 1529 1530 1529 1528 1527 1527 1527 1527 1527 1528 1528
1531 1528 1519 1514 1512 1510 1514 1515 1517 1517 1519 1518 1518 1519 1519 1519 1520 1521 1522 1522 1523 1524 1525 1525 1525 1525 1526 1526 1526 1526 1527 1527 1528 1528 1528 1527 1528 1528 1528 1527 1526 1526 1526 1526 1526 1526 1526 1527 1527
1529 1524 1517 1515 1512 1512 1514 1515 1516 1517 1516 1517 1517 1518 1518 1519 1519 1520 1520 1520 1520 1521 1522 1523 1523 1524 1524 1525 1525 1525 1526 1526 1527 1527 1526 1526 1526 1526 1526 1524 1524 1525 1525 1525 1525 1525 1525 1525 1526
1526 1521 1517 1515 1514 1515 1515 1514 1515 1515 1513 1512 1514 1516 1516 1517 1518 1518 1519 1519 1519 1520 1521 1522 1523 1523 1524 1524 1524 1524 1524 1525 1525 1525 1525 1525 1524 1524 1523 1523 1523 1523 1523 1523 1523 1523 1523 1523 1524
1524 1520 1518 1515 1514 1515 1515 1513 1513 1513 1511 1512 1513 1513 1513 1514 1514 1515 1516 1517 1518 1518 1520 1521 1522 1522 1523 1523 1522 1522 1522 1522 1523 1523 1523 1523 1522 1522 1522 1522 1522 1522 1522 1522 1521 1522 1521 1521 1522
1522 1517 1517 1516 1515 1515 1514 1512 1512 1511 1510 1510 1511 1511 1512 1512 1512 1513 1515 1516 1516 1516 1517 1518 1519 1520 1519 1519 1519 1520 1519 1520 1521 1521 1521 1521 1520 1520 1520 1520 1520 1519 1520 1520 1521 1520 1520 1519 1519
1519 1517 1516 1515 1515 1515 1514 1511 1512 1508 1507 1508 1509 1510 1510 1510 1510 1511 1511 1512 1513 1514 1514 1515 1515 1516 1516 1516 1517 1518 1518 1518 1518 1518 1518 1518 1518 1518 1518 1517 1517 1516 1516 1517 1517 1517 1517 1517 1516
1519 1516 1515 1515 1515 1515 1515 1509 1508 1506 1506 1506 1507 1508 1508 1507 1507 1506 1507 1508 1509 1510 1511 1511 1512 1512 1513 1514 1514 1515 1515 1515 1514 1514 1514 1515 1515 1515 1515 1514 1513 1513 1513 1513 1513 1513 1513 1513 1513
1517 1515 1514 1512 1514 1514 1516 1506 1502 1504 1504 1504 1504 1505 1504 1503 1502 1502 1502 1502 1504 1505 1506 1507 1508 1509 1509 1510 1510 1511 1511 1510 1510 1509 1510 1510 1511 1511 1511 1511 1511 1511 1510 1510 1511 1511 1511 1510 1510
1514 1512 1513 1511 1515 1514 1513 1505 1502 1503 1503 1502 1502 1501 1500 1500 1498 1497 1498 1498 1498 1498 1499 1500 1502 1503 1504 1505 1505 1505 1505 1505 1505 1505 1505 1506 1506 1506 1506 1506 1507 1508 1508 1507 1507 1507 1508 1507 1507
1512 1514 1515 1513 1514 1514 1510 1505 1500 1500 1501 1500 1498 1496 1495 1493 1492 1492 1491 1491 1491 1491 1491 1493 1494 1496 1497 1498 1498 1499 1500 1500 1500 1500 1500 1500 1500 1500 1500 1500 1500 1501 1501 1501 1501 1501 1502 1501 1502
1511 1513 1514 1513 1515 1514 1507 1505 1502 1497 1495 1495 1493 1492 1490 1488 1486 1485 1485 1484 1484 1484 1484 1485 1486 1487 1489 1490 1491 1493 1494 1495 1494 1494 1493 1493 1493 1493 1493 1493 1493 1493 1493 1494 1495 1495 1495 1494 1494
1514 1514 1513 1514 1515 1514 1507 1506 1503 1499 1496 1495 1494 1491 1488 1485 1483 1481 1479 1476 1475 1475 1476 1478 1479 1481 1482 1485 1486 1488 1489 1489 1488 1487 1486 1485 1485 1485 1484 1485 1486 1486 1487 1488 1490 1490 1491 1490 1491
1516 1513 1515 1516 1511 1512 1510 1506 1503 1500 1498 1497 1495 1493 1489 1485 1481 1477 1474 1471 1470 1469 1470 1473 1475 1477 1478 1479 1480 1480 1481 1480 1480 1479 1478 1478 1478 1478 1478 1478 1479 1479 1480 1479 1479 1480 1480 1481 1482
1516 1518 1517 1515 1511 1510 1514 1506 1505 1501 1499 1498 1496 1494 1492 1489 1485 1481 1475 1470 1467 1466 1466 1468 1471 1473 1475 1475 1474 1474 1474 1473 1474 1474 1473 1472 1472 1472 1472 1471 1472 1472 1472 1471 1471 1471 1472 1473 1474
1517 1519 1518 1517 1513 1514 1514 1504 1500 1500 1499 1499 1498 1497 1495 1492 1489 1484 1478 1473 1469 1466 1465 1465 1468 1470 1471 1471 1470 1470 1469 1469 1469 1467 1465 1464 1464 1464 1465 1465 1465 1464 1463 1462 1462 1462 1462 1462 1462
1519 1518 1517 1516 1515 1516 1519 1516 1501 1497 1498 1500 1499 1498 1496 1494 1490 1486 1481 1476 1473 1470 1467 1466 1466 1467 1466 1465 1464 1463 1462 1461 1460 1459 1458 1457 1456 1457 1457 1456 1456 1455 1453 1452 1451 1452 1453 1454 1453
1516 1513 1510 1511 1514 1518 1523 1517 1499 1496 1498 1499 1499 1498 1496 1494 1490 1485 1480 1477 1475 1472 1469 1467 1466 1464 1462 1460 1458 1457 1456 1455 1454 1453 1451 1450 1449 1448 1448 1448 1447 1446 1445 1445 1445 1445 1443 1443 1443
1514 1513 1515 1520 1519 1511 1524 1511 1495 1492 1497 1498 1500 1499 1496 1493 1490 1486 1482 1479 1476 1473 1470 1468 1465 1463 1461 1459 1457 1455 1453 1451 1449 1448 1447 1446 1445 1443 1442 1441 1441 1441 1440 1439 1438 1437 1435 1434 1433
1522 1516 1519 1519 1529 1522 1513 1503 1489 1490 1494 1496 1497 1496 1494 1493 1490 1487 1483 1479 1477 1474 1471 1468 1465 1463 1460 1457 1454 1452 1449 1447 1446 1444 1442 1440 1439 1437 1435 1434 1432 1430 1429 1429 1428 1425 1424 1422 1423
1520 1518 1530 1522 1524 1524 1517 1510 1493 1488 1489 1493 1494 1494 1495 1494 1489 1486 1484 1481 1478 1475 1472 1469 1466 1462 1458 1455 1453 1450 1447 1444 1441 1440 1437 1435 1433 1431 1428 1425 1423 1421 1419 1418 1420 1418 1416 1413 1411
1518 1518 1521 1519 1522 1521 1520 1502 1484 1485 1486 1489 1490 1490 1489 1486 1485 1484 1483 1481 1479 1475 1473 1469 1465 1461 1457 1454 1451 1449 1445 1441 1437 1435 1432 1429 1425 1422 1420 1418 1416 1413 1411 1409 1408 1408 1407 1404 1401
1516 1514 1515 1516 1523 1522 1524 1507 1482 1482 1486 1486 1486 1486 1485 1484 1484 1483 1481 1480 1477 1474 1471 1468 1464 1460 1456 1452 1450 1448 1445 1441 1435 1431 1427 1424 1420 1417 1414 1411 1407 1405 1402 1399 1396 1394 1395 1394 1391